Daily weather history


Statistical History for Saturday, February 23, 2013

St. Petersburg Airport, FL


  Actual Average (KTPA) Record (KTPA)
Temperature
Mean Temperature 64 °F  
Max Temperature 74 °F 87 °F (1949)
Min Temperature 56 °F 31 °F (1978)
Degree Days
Heating Degree Days 3  
Month to date heating degree days 92  
Since 1 July heating degree days 457  
Cooling Degree Days 3  
Month to date cooling degree days 47  
Year to date cooling degree days 97  
Growing Degree Days 24 (Base - )  
Moisture
Dew Point   
Average Humidity    
Maximum Humidity    
Minimum Humidity    
Precipitation
Precipitation 0.10 in 1.82 in (1942)
Month to date precipitation 2.35  
Year to date precipitation 4.58  
Wind
Wind Speed   
Max Wind Speed   
Max Gust Speed   
Visibility   
Events   

Key: T is trace of precipitation, MM is missing value
Source: NWS Daily Summary
Time(EST)TemperatureDew PointHumidity Sea Level Pressure Visibility Wind DirectionWind SpeedGust SpeedPrecipitationEventsConditions
12:53 AM 70.0 °F 66.9 °F 90% 30.01 in 10.0 miles South 6.9 mph - N/A   Clear
1:53 AM 70.0 °F 66.9 °F 90% 30.00 in 10.0 miles South 10.4 mph - N/A   Clear
2:27 AM 71.6 °F 66.2 °F 83% 29.99 in 10.0 miles South 9.2 mph - N/A   Mostly Cloudy
2:48 AM 69.8 °F 66.2 °F 88% 29.98 in 10.0 miles SSE 6.9 mph - N/A   Scattered Clouds
2:53 AM 70.0 °F 66.9 °F 90% 29.99 in 10.0 miles SSE 9.2 mph - N/A   Partly Cloudy
3:53 AM 69.8 °F 66.2 °F 88% 29.97 in 10.0 miles SSE 11.5 mph - N/A   Scattered Clouds
4:03 AM 69.8 °F 66.2 °F 88% 29.97 in 10.0 miles SSE 10.4 mph - N/A   Mostly Cloudy
4:36 AM 71.6 °F 68.0 °F 88% 29.97 in 10.0 miles South 12.7 mph - N/A   Overcast
4:53 AM 71.1 °F 68.0 °F 90% 29.97 in 10.0 miles South 13.8 mph - N/A   Overcast
5:53 AM 70.0 °F 68.0 °F 93% 29.96 in 10.0 miles South 11.5 mph - N/A   Mostly Cloudy
6:53 AM 71.1 °F 68.0 °F 90% 29.98 in 10.0 miles South 9.2 mph - N/A   Overcast
7:09 AM 71.6 °F 68.0 °F 88% 29.98 in 10.0 miles South 10.4 mph - N/A   Overcast
7:53 AM 72.0 °F 69.1 °F 91% 29.99 in 10.0 miles South 12.7 mph - N/A   Overcast
8:53 AM 73.0 °F 70.0 °F 90% 30.01 in 10.0 miles South 15.0 mph - N/A   Overcast
9:53 AM 73.9 °F 70.0 °F 87% 30.01 in 10.0 miles SSW 12.7 mph - N/A   Overcast
10:53 AM 78.1 °F 70.0 °F 76% 30.00 in 10.0 miles South 17.3 mph 24.2 mph N/A   Mostly Cloudy
11:27 AM 80.6 °F 69.8 °F 70% 30.00 in 10.0 miles South 17.3 mph 26.5 mph N/A   Mostly Cloudy
11:53 AM 80.1 °F 70.0 °F 71% 30.00 in 10.0 miles SSW 18.4 mph 29.9 mph N/A   Mostly Cloudy
12:53 PM 80.1 °F 70.0 °F 71% 29.98 in 10.0 miles SSW 19.6 mph 27.6 mph N/A   Mostly Cloudy
1:53 PM 80.1 °F 70.0 °F 71% 29.95 in 10.0 miles SSW 19.6 mph 24.2 mph N/A   Mostly Cloudy
2:24 PM 80.6 °F 69.8 °F 70% 29.94 in 10.0 miles SSW 16.1 mph - N/A   Mostly Cloudy
2:53 PM 80.1 °F 70.0 °F 71% 29.94 in 10.0 miles SW 15.0 mph 23.0 mph N/A   Mostly Cloudy
3:12 PM 78.8 °F 69.8 °F 74% 29.93 in 10.0 miles SSW 18.4 mph 24.2 mph N/A   Mostly Cloudy
3:33 PM 78.8 °F 71.6 °F 78% 29.93 in 10.0 miles SSW 12.7 mph - N/A   Mostly Cloudy
3:53 PM 79.0 °F 70.0 °F 74% 29.92 in 10.0 miles SSW 16.1 mph - N/A   Mostly Cloudy
4:53 PM 75.0 °F 70.0 °F 84% 29.92 in 9.0 miles SSW 12.7 mph - N/A   Overcast
5:53 PM 73.0 °F 70.0 °F 90% 29.93 in 7.0 miles SSW 11.5 mph - N/A   Overcast
5:56 PM 73.4 °F 69.8 °F 88% 29.93 in 3.0 miles SSW 13.8 mph - N/A   Overcast
6:15 PM 71.6 °F 69.8 °F 94% 29.94 in 1.0 miles SSW 10.4 mph - N/A   Overcast
6:53 PM 72.0 °F 69.1 °F 91% 29.95 in 1.5 miles SW 9.2 mph - N/A   Overcast
7:53 PM 71.1 °F 69.1 °F 93% 29.95 in 1.0 miles SSW 9.2 mph - N/A   Overcast
8:53 PM 72.0 °F 69.1 °F 91% 29.95 in 1.0 miles SSW 11.5 mph - N/A   Overcast
9:53 PM 70.0 °F 68.0 °F 93% 29.96 in 1.0 miles SSW 10.4 mph - N/A   Overcast
10:53 PM 70.0 °F 68.0 °F 93% 29.97 in 1.0 miles SSW 9.2 mph - N/A   Overcast
11:00 PM 69.8 °F 68.0 °F 94% 29.97 in 3.0 miles SSW 6.9 mph - N/A   Overcast
11:13 PM 69.8 °F 68.0 °F 94% 29.96 in 2.0 miles SSW 10.4 mph - N/A   Overcast
11:22 PM 69.8 °F 68.0 °F 94% 29.95 in 1.8 miles SSW 9.2 mph - N/A   Overcast
11:33 PM 69.8 °F 68.0 °F 94% 29.95 in 2.5 miles SSW 8.1 mph - N/A   Overcast
11:50 PM 69.8 °F 66.2 °F 88% 29.95 in 3.0 miles SSW 6.9 mph - N/A   Overcast
11:53 PM 69.1 °F 68.0 °F 96% 29.95 in 3.0 miles SSW 6.9 mph - N/A   Overcast
ADVERTISEMENT
Enter city or zip code to search weather conditions:

My favorites Edit

Partly Cloudy
77°
Partly Cloudy

Partly Cloudy
79°
Partly Cloudy

Clear
82°
Clear


  • 490 First Avenue South
  • St. Petersburg, FL 33701
  • 727-893-8111